DW1389 Weather Reports


time (UTC)temp
C
wind
direction
speed
KPH
gust
KPH
rain 1hr
cm
rain 24hr
cm
rain mn
cm
humidity
%
barometer
mb
20260506014902 26 295 1.6 4.8 0.00 0.00 0.00 82 1005.8
20260506014634 26 152 1.6 6.4 0.00 0.00 0.00 82 1005.8
20260506013902 26 137 3.2 6.4 0.00 0.00 0.00 81 1005.7
20260506013402 26 150 3.2 6.4 0.00 0.00 0.00 81 1005.8
20260506012902 26 37 3.2 8.0 0.00 0.00 0.00 80 1005.7
20260506012401 26 71 3.2 8.0 0.00 0.00 0.00 80 1005.6
20260506012129 26 183 3.2 4.8 0.00 0.00 0.00 80 1005.6
20260506011402 26 271 1.6 4.8 0.00 0.00 0.00 79 1005.6
20260506011133 27 58 1.6 4.8 0.00 0.00 0.00 79 1005.7
20260506010402 27 290 1.6 4.8 0.00 0.00 0.00 78 1005.8
20260506005904 27 161 1.6 4.8 0.00 0.00 0.00 78 1005.7
20260506005402 27 274 1.6 6.4 0.00 0.00 0.00 77 1005.7
20260506004902 27 170 1.6 6.4 0.00 0.00 0.00 76 1005.7
20260506004402 27 161 1.6 4.8 0.00 0.00 0.00 76 1005.6
20260506003901 27 155 1.6 8.0 0.00 0.00 0.00 76 1005.6
20260506003640 27 138 3.2 8.0 0.00 0.00 0.00 76 1005.6
20260506002902 27 55 3.2 8.0 0.00 0.00 0.00 76 1005.6
20260506002401 27 211 3.2 8.0 0.00 0.00 0.00 75 1005.6
20260506001901 27 256 3.2 8.0 0.00 0.00 0.00 75 1005.7
20260506001401 27 56 3.2 8.0 0.00 0.00 0.00 74 1005.7
20260506000936 27 324 3.2 8.0 0.00 0.00 0.00 74 1005.7
20260506000926 27 346 3.2 8.0 0.00 0.00 0.00 74 1005.7
20260505235902 28 67 3.2 8.0 0.00 0.00 0.00 74 1005.7
20260505235401 28 126 1.6 8.0 0.00 0.00 0.00 73 1005.6
20260505234901 28 235 3.2 9.7 0.00 0.00 0.00 74 1005.5
20260505234400 28 209 3.2 12.9 0.00 0.00 0.00 73 1005.4
20260505233900 28 119 4.8 12.9 0.00 0.00 0.00 72 1005.4
20260505233400 28 292 4.8 9.7 0.00 0.00 0.00 73 1005.3
20260505232901 28 216 4.8 17.7 0.00 0.00 0.00 73 1005.2
20260505232644 28 274 4.8 17.7 0.00 0.00 0.00 72 1005.2
20260505231901 28 147 3.2 11.3 0.00 0.00 0.00 71 1005.1
20260505231401 28 209 3.2 9.7 0.00 0.00 0.00 72 1005.1
20260505230901 28 234 3.2 9.7 0.00 0.00 0.00 71 1005.2
20260505230401 28 177 3.2 9.7 0.00 0.00 0.00 72 1005.1
20260505225901 28 263 3.2 9.7 0.00 0.00 0.00 71 1005.1
20260505225400 28 133 3.2 8.0 0.00 0.00 0.00 72 1005.1
20260505224901 28 169 3.2 9.7 0.00 0.00 0.00 72 1005.1
20260505224401 28 176 3.2 9.7 0.00 0.00 0.00 72 1005.1
20260505224141 28 0 3.2 14.5 0.00 0.00 0.00 72 1005.1
20260505223401 28 239 4.8 14.5 0.00 0.00 0.00 73 1005.1
20260505222902 28 134 4.8 12.9 0.00 0.00 0.00 71 1005.0
20260505222643 28 238 4.8 11.3 0.00 0.00 0.00 71 1004.9
20260505221902 28 175 4.8 11.3 0.00 0.00 0.00 71 1005.0
20260505221400 29 243 4.8 16.1 0.00 0.00 0.00 71 1005.1
20260505220901 29 320 3.2 16.1 0.00 0.00 0.00 70 1005.2
20260505220643 29 95 4.8 12.9 0.00 0.00 0.00 70 1005.2
20260505215901 29 130 4.8 11.3 0.00 0.00 0.00 70 1005.2
20260505215402 29 295 4.8 12.9 0.00 0.00 0.00 70 1005.4
20260505214901 28 269 6.4 12.9 0.00 0.00 0.00 71 1005.4
20260505214402 29 261 6.4 12.9 0.00 0.00 0.00 69 1005.4
20260505213902 29 271 4.8 11.3 0.00 0.00 0.00 68 1005.5
20260505213402 29 119 3.2 12.9 0.00 0.00 0.00 68 1005.5
20260505213144 29 225 4.8 17.7 0.00 0.00 0.00 69 1005.4
20260505212401 29 52 4.8 17.7 0.00 0.00 0.00 68 1005.6
20260505211901 29 146 4.8 19.3 0.00 0.00 0.00 69 1005.8
20260505211401 28 328 4.8 19.3 0.00 0.00 0.00 70 1005.8
20260505210901 28 316 4.8 16.1 0.00 0.00 0.00 69 1005.8
20260505210647 28 237 4.8 16.1 0.00 0.00 0.00 71 1005.7
20260505205904 28 159 4.8 12.9 0.00 0.00 0.00 71 1005.8
20260505205402 28 219 4.8 12.9 0.00 0.00 0.00 69 1005.9
20260505205143 28 125 4.8 11.3 0.00 0.00 0.00 70 1006.0
20260505204401 28 118 4.8 12.9 0.00 0.00 0.00 72 1006.0
20260505203901 28 254 4.8 12.9 0.00 0.00 0.00 71 1005.9
20260505203401 28 153 4.8 12.9 0.00 0.00 0.00 70 1006.1
20260505202902 28 228 4.8 16.1 0.00 0.00 0.00 71 1006.3
20260505202651 28 260 4.8 16.1 0.00 0.00 0.00 72 1006.3
20260505201903 28 250 4.8 12.9 0.00 0.00 0.00 72 1006.5
20260505201648 28 10 4.8 16.1 0.00 0.00 0.00 72 1006.7
20260505201148 28 195 4.8 16.1 0.00 0.00 0.00 72 1006.7
20260505200401 28 34 6.4 19.3 0.00 0.00 0.00 72 1006.7
20260505195902 28 225 6.4 19.3 0.00 0.00 0.00 72 1006.7
20260505195401 28 248 4.8 16.1 0.00 0.00 0.00 72 1006.8
20260505194901 28 260 4.8 16.1 0.00 0.00 0.00 73 1006.7
20260505194401 27 52 4.8 12.9 0.00 0.00 0.00 74 1006.9
20260505193901 27 257 4.8 14.5 0.00 0.00 0.00 74 1007.1
20260505193401 27 196 4.8 14.5 0.00 0.00 0.00 75 1007.2
20260505193146 27 209 4.8 11.3 0.00 0.00 0.00 73 1007.2
20260505192401 27 352 4.8 11.3 0.00 0.00 0.00 73 1007.2
20260505191901 27 186 4.8 11.3 0.00 0.00 0.00 74 1007.2
20260505191401 27 253 6.4 12.9 0.00 0.00 0.00 75 1007.3
20260505190901 27 227 6.4 12.9 0.00 0.00 0.00 75 1007.3
20260505190401 27 163 6.4 11.3 0.00 0.00 0.00 74 1007.3
20260505185900 27 268 6.4 11.3 0.00 0.00 0.00 75 1007.3
20260505185401 26 174 6.4 11.3 0.00 0.00 0.00 76 1007.4
20260505184901 26 307 6.4 17.7 0.00 0.00 0.00 76 1007.5
20260505184401 26 250 6.4 17.7 0.00 0.00 0.00 77 1007.6
20260505183900 26 234 6.4 14.5 0.00 0.00 0.00 76 1007.7
20260505183401 26 101 4.8 11.3 0.00 0.00 0.00 77 1007.7
20260505182901 26 328 4.8 12.9 0.00 0.00 0.00 78 1007.7
20260505182644 26 175 4.8 12.9 0.00 0.00 0.00 78 1007.8
20260505182150 25 264 4.8 12.9 0.00 0.00 0.00 79 1007.7
20260505181402 25 214 6.4 14.5 0.00 0.00 0.00 79 1007.8
20260505181221 25 213 6.4 17.7 0.00 0.00 0.00 79 1008.0
20260505180924 25 185 8.0 17.7 0.00 0.00 0.00 80 1007.9
20260505175900 25 215 6.4 12.9 0.00 0.00 0.00 79 1008.1
20260505175401 25 231 6.4 12.9 0.00 0.00 0.00 80 1008.1
20260505174901 25 133 6.4 17.7 0.00 0.00 0.00 80 1008.2
20260505174405 25 250 6.4 17.7 0.00 0.00 0.00 81 1008.1
20260505173900 25 264 6.4 12.9 0.00 0.00 0.00 81 1008.1
20260505173400 25 255 6.4 16.1 0.00 0.00 0.00 81 1008.2
20260505172900 25 237 6.4 16.1 0.00 0.00 0.00 82 1008.2
20260505172644 24 251 6.4 14.5 0.00 0.00 0.00 81 1008.2
20260505171901 24 229 6.4 14.5 0.00 0.00 0.00 83 1008.2
20260505171401 23 191 8.0 14.5 0.00 0.00 0.00 83 1008.2
20260505170901 23 271 6.4 16.1 0.00 0.00 0.00 83 1008.3
20260505170400 23 210 6.4 16.1 0.00 0.00 0.00 84 1008.3
20260505165903 23 279 6.4 14.5 0.00 0.00 0.00 84 1008.3
20260505165402 23 216 6.4 14.5 0.00 0.00 0.00 84 1008.3
20260505164901 23 230 6.4 14.5 0.00 0.00 0.00 85 1008.4
20260505164401 23 341 6.4 14.5 0.00 0.00 0.00 85 1008.3
20260505163901 23 250 6.4 12.9 0.00 0.00 0.00 86 1008.3
20260505163642 23 219 8.0 12.9 0.00 0.00 0.00 87 1008.4
20260505162901 22 171 8.0 12.9 0.00 0.00 0.00 87 1008.4
20260505162401 22 235 8.0 12.9 0.00 0.00 0.00 88 1008.2
20260505161901 22 211 6.4 14.5 0.00 0.00 0.00 88 1008.3
20260505161401 22 195 6.4 14.5 0.00 0.00 0.00 88 1008.3
20260505160901 22 169 6.4 14.5 0.00 0.00 0.00 88 1008.3
20260505160401 22 255 6.4 12.9 0.00 0.00 0.00 88 1008.2
20260505152901 22 242 6.4 12.9 0.00 0.00 0.00 89 1008.4
20260505152401 22 211 6.4 14.5 0.00 0.00 0.00 89 1008.4
20260505151902 22 201 6.4 14.5 0.00 0.00 0.00 89 1008.3
20260505151401 22 216 6.4 14.5 0.00 0.00 0.00 89 1008.3
20260505150901 22 254 8.0 12.9 0.00 0.00 0.00 89 1008.2
20260505150401 22 168 6.4 12.9 0.00 0.00 0.00 89 1008.2
20260505140350 22 209 6.4 16.1 0.00 0.00 0.00 90 1007.8
20260505124839 21 258 6.4 14.5 0.00 0.00 0.00 92 1007.3
20260505124339 21 234 6.4 12.9 0.00 0.00 0.00 91 1007.2
20260505123839 21 260 6.4 12.9 0.00 0.00 0.00 91 1007.1
20260505123623 21 133 6.4 12.9 0.00 0.00 0.00 91 1007.0
20260505122839 21 248 6.4 11.3 0.00 0.00 0.00 91 1006.8
20260505122339 21 280 4.8 11.3 0.00 0.00 0.00 91 1006.8
20260505121839 21 190 4.8 11.3 0.00 0.00 0.00 91 1006.7
20260505121616 21 227 4.8 11.3 0.00 0.00 0.00 91 1006.7
20260505120834 21 223 4.8 9.7 0.00 0.00 0.00 91 1006.6
20260505120334 21 217 4.8 9.7 0.00 0.00 0.00 90 1006.5
20260505115834 21 198 4.8 12.9 0.00 0.00 0.00 90 1006.4
20260505115333 21 231 6.4 14.5 0.00 0.00 0.00 90 1006.4
20260505115118 21 235 6.4 17.7 0.00 0.00 0.00 90 1006.6
20260505114333 21 168 6.4 17.7 0.00 0.00 0.00 90 1006.4
20260505113834 21 236 8.0 16.1 0.00 0.00 0.00 90 1006.6
20260505113334 21 108 8.0 16.1 0.00 0.00 0.00 90 1006.6
20260505112834 21 222 6.4 14.5 0.00 0.00 0.00 91 1006.6
20260505112619 21 151 6.4 14.5 0.00 0.00 0.00 91 1006.1
20260505111834 21 128 6.4 12.9 0.00 0.00 0.00 91 1006.3
20260505111334 21 260 6.4 12.9 0.00 0.00 0.00 90 1006.5
20260505110834 21 228 6.4 14.5 0.00 0.00 0.00 90 1006.6
20260505110335 21 149 6.4 14.5 0.00 0.00 0.00 90 1006.7
20260505101829 21 233 6.4 12.9 0.00 0.00 0.00 89 1006.8
20260505101608 21 181 4.8 12.9 0.00 0.00 0.00 89 1007.0
20260505100823 21 225 4.8 11.3 0.00 0.00 0.00 88 1006.8
20260505100323 21 223 6.4 14.5 0.00 0.00 0.00 88 1007.0
20260505095823 21 207 6.4 14.5 0.00 0.00 0.00 88 1007.0
20260505095323 21 288 4.8 9.7 0.00 0.00 0.00 88 1006.8
20260505094823 21 242 6.4 16.1 0.00 0.00 0.00 88 1006.8
20260505094323 21 242 6.4 16.1 0.00 0.00 0.00 88 1006.9
20260505093823 21 218 6.4 14.5 0.00 0.00 0.00 88 1007.0
20260505093323 21 206 6.4 14.5 0.00 0.00 0.00 88 1007.0
20260505092823 21 225 4.8 11.3 0.00 0.00 0.00 88 1007.1
20260505092323 21 257 4.8 14.5 0.00 0.00 0.00 88 1006.9
20260505091817 21 314 4.8 16.1 0.00 0.00 0.00 88 1007.0
20260505091602 21 283 6.4 16.1 0.00 0.00 0.00 87 1007.2
20260505090817 21 238 6.4 12.9 0.00 0.00 0.00 88 1007.2
20260505090318 21 181 6.4 14.5 0.00 0.00 0.00 88 1007.2
20260505090101 21 294 6.4 16.1 0.00 0.00 0.00 89 1007.1
20260505085318 21 181 6.4 16.1 0.00 0.00 0.00 89 1007.1
20260505084818 21 264 6.4 12.9 0.00 0.00 0.00 89 1007.3
20260505084317 21 245 6.4 16.1 0.00 0.00 0.00 89 1007.2
20260505083818 21 245 6.4 16.1 0.00 0.00 0.00 89 1007.1
20260505083317 21 223 6.4 16.1 0.00 0.00 0.00 89 1007.3
20260505082818 21 237 6.4 12.9 0.00 0.00 0.00 89 1007.4
20260505082558 21 226 6.4 12.9 0.00 0.00 0.00 89 1007.5
20260505081818 21 189 6.4 14.5 0.00 0.00 0.00 89 1007.5
20260505081318 21 297 6.4 14.5 0.00 0.00 0.00 89 1007.5
20260505080819 21 203 6.4 16.1 0.00 0.00 0.00 88 1007.5
20260505080312 21 220 6.4 16.1 0.00 0.00 0.00 88 1007.3
20260505075840 21 188 6.4 14.5 0.00 0.00 0.00 88 1007.5
20260505075832 21 305 6.4 12.9 0.00 0.00 0.00 88 1007.4
20260505074807 21 244 6.4 14.5 0.00 0.00 0.00 88 1007.7
20260505074307 21 201 4.8 14.5 0.00 0.00 0.00 88 1007.8
20260505074045 21 227 6.4 14.5 0.00 0.00 0.00 88 1007.7
20260505073306 21 265 6.4 12.9 0.00 0.00 0.00 88 1007.7
20260505072807 21 253 6.4 16.1 0.00 0.00 0.00 88 1007.8
20260505072307 21 240 6.4 16.1 0.00 0.00 0.00 88 1007.9
20260505071807 21 160 6.4 14.5 0.00 0.00 0.00 88 1008.2
20260505071307 21 238 6.4 11.3 0.00 0.00 0.00 88 1008.2
20260505070807 21 164 6.4 12.9 0.00 0.00 0.00 88 1008.2
20260505070551 21 188 6.4 14.5 0.00 0.00 0.00 88 1008.2
20260505070046 21 299 4.8 14.5 0.00 0.00 0.00 88 1008.3
20260505065301 21 294 4.8 11.3 0.00 0.00 0.00 88 1008.3
20260505064802 21 263 4.8 11.3 0.00 0.00 0.00 88 1008.3
20260505064302 21 235 4.8 12.9 0.00 0.00 0.00 88 1008.3
20260505063802 21 233 6.4 12.9 0.00 0.00 0.00 88 1008.3
20260505063301 21 248 6.4 12.9 0.00 0.00 0.00 88 1008.5
20260505062802 21 287 6.4 12.9 0.00 0.00 0.00 88 1008.5
20260505062304 21 230 4.8 12.9 0.00 0.00 0.00 88 1008.6
20260505061802 21 198 4.8 11.3 0.00 0.00 0.00 87 1008.7
20260505061302 21 297 6.4 14.5 0.00 0.00 0.00 87 1008.8
20260505060802 21 191 6.4 22.5 0.00 0.00 0.00 87 1008.7
20260505060302 21 283 6.4 22.5 0.00 0.00 0.00 87 1008.7
20260505055802 21 235 6.4 17.7 0.00 0.00 0.00 87 1008.7
20260505055303 21 274 6.4 16.1 0.00 0.00 0.00 87 1008.7
20260505054802 21 270 6.4 19.3 0.00 0.00 0.00 87 1008.7
20260505054302 21 198 6.4 19.3 0.00 0.00 0.00 87 1008.7
20260505053801 21 54 8.0 22.5 0.00 0.00 0.00 87 1008.6
20260505053301 21 14 8.0 22.5 0.00 0.00 0.00 87 1008.6
20260505052802 21 317 4.8 12.9 0.00 0.00 0.00 87 1008.7
20260505052552 21 304 4.8 12.9 0.00 0.00 0.00 88 1008.6
20260505051802 21 204 4.8 12.9 0.00 0.00 0.00 88 1008.7
20260505051302 21 191 4.8 12.9 0.00 0.00 0.00 88 1008.6
20260505050802 21 298 4.8 11.3 0.00 0.00 0.00 88 1008.5
20260505050301 21 284 3.2 9.7 0.00 0.00 0.00 88 1008.6
20260505041302 22 296 3.2 14.5 0.00 0.00 0.00 86 1008.6
20260505040802 22 298 4.8 14.5 0.00 0.00 0.00 85 1008.6
20260505040302 22 188 4.8 14.5 0.00 0.00 0.00 85 1008.5
20260505035801 22 300 3.2 11.3 0.00 0.00 0.00 85 1008.6
20260505035549 22 256 3.2 11.3 0.00 0.00 0.00 84 1008.7
20260505035045 22 186 4.8 9.7 0.00 0.00 0.00 84 1008.6
20260505034302 22 134 3.2 8.0 0.00 0.00 0.00 83 1008.7
20260505033802 22 183 3.2 6.4 0.00 0.00 0.00 83 1008.6
20260505033301 22 222 3.2 6.4 0.00 0.00 0.00 82 1008.6
20260505032802 22 174 3.2 8.0 0.00 0.00 0.00 82 1008.5
20260505032532 22 239 3.2 8.0 0.00 0.00 0.00 82 1008.5
20260505031802 23 201 3.2 8.0 0.00 0.00 0.00 81 1008.4
20260505031301 23 240 3.2 12.9 0.00 0.00 0.00 81 1008.5
20260505030802 23 222 3.2 12.9 0.00 0.00 0.00 80 1008.5
20260505030301 23 288 4.8 11.3 0.00 0.00 0.00 80 1008.6
20260505030039 23 70 4.8 11.3 0.00 0.00 0.00 79 1008.6
20260505025301 23 153 3.2 8.0 0.00 0.00 0.00 79 1008.5
20260505024801 23 181 3.2 8.0 0.00 0.00 0.00 79 1008.5
20260505024301 23 312 4.8 12.9 0.00 0.00 0.00 78 1008.4
20260505023817 23 187 3.2 6.4 0.00 0.00 0.00 77 1008.5
20260505023810 23 197 4.8 12.9 0.00 0.00 0.00 77 1008.5
20260505023025 23 242 3.2 8.0 0.00 0.00 0.00 77 1008.4
20260505022257 23 189 3.2 8.0 0.00 0.00 0.00 76 1008.5
20260505021757 23 107 3.2 8.0 0.00 0.00 0.00 76 1008.4
20260505021257 23 321 3.2 8.0 0.00 0.00 0.00 75 1008.2
20260505020758 23 155 3.2 8.0 0.00 0.00 0.00 75 1008.2
20260505020256 24 156 4.8 9.7 0.00 0.00 0.00 74 1008.2
20260505015756 24 249 4.8 11.3 0.00 0.00 0.00 74 1008.2
20260505015536 24 271 4.8 11.3 0.00 0.00 0.00 74 1008.3